This is the latest recevied weather packets stored in our database for station/object K1BWE-1. If no packets are shown the sender has not sent any weather packets the latest 1 day(s).
| Time | Temp. | Humidity | Pressure | Rain* | Wind** | Luminosity | Snow |
|---|---|---|---|---|---|---|---|
| 1778034760 | 17.78° C | 41% | 1013.2 hPa | 0 mm | 0.45 m/s, 233° | 0 W/m² | - |
| 1778034457 | 18.33° C | 41% | 1013.2 hPa | 0 mm | 0.45 m/s, 197° | 0 W/m² | - |
| 1778034155 | 18.33° C | 40% | 1013 hPa | 0 mm | 1.34 m/s, 231° | 0 W/m² | - |
| 1778033852 | 18.33° C | 39% | 1012.9 hPa | 0 mm | 1.34 m/s, 259° | 0 W/m² | - |
| 1778033549 | 18.33° C | 38% | 1012.8 hPa | 0 mm | 1.34 m/s, 257° | 0 W/m² | - |
| 1778033246 | 18.33° C | 38% | 1012.9 hPa | 0 mm | 0.45 m/s, 273° | 2 W/m² | - |
| 1778032944 | 18.89° C | 37% | 1012.6 hPa | 0 mm | 0.89 m/s, 236° | 4 W/m² | - |
| 1778032641 | 18.89° C | 35% | 1012.6 hPa | 0 mm | 1.79 m/s, 233° | 7 W/m² | - |
| 1778032339 | 18.89° C | 36% | 1012.5 hPa | 0 mm | 1.34 m/s, 174° | 9 W/m² | - |
| 1778032036 | 18.89° C | 34% | 1012.5 hPa | 0 mm | 2.24 m/s, 323° | 12 W/m² | - |
| 1778031732 | 19.44° C | 33% | 1012.4 hPa | 0 mm | 0.89 m/s, 251° | 17 W/m² | - |
| 1778031429 | 19.44° C | 32% | 1012.4 hPa | 0 mm | 2.68 m/s, 242° | 23 W/m² | - |
| 1778031126 | 20° C | 32% | 1012.5 hPa | 0 mm | 1.34 m/s, 281° | 32 W/m² | - |
| 1778030822 | 20° C | 33% | 1012.5 hPa | 0 mm | 0.89 m/s, 245° | 40 W/m² | - |
| 1778030519 | 20° C | 33% | 1012.5 hPa | 0 mm | 1.79 m/s, 262° | 47 W/m² | - |
| 1778030217 | 20.56° C | 34% | 1012.5 hPa | 0 mm | 1.79 m/s, 289° | 55 W/m² | - |
| 1778029913 | 20.56° C | 34% | 1012.1 hPa | 0 mm | 1.34 m/s, 204° | 78 W/m² | - |
| 1778029612 | 20.56° C | 33% | 1012.1 hPa | 0 mm | 1.79 m/s, 273° | 92 W/m² | - |
| 1778029308 | 20.56° C | 34% | 1012 hPa | 0 mm | 1.34 m/s, 284° | 106 W/m² | - |
| 1778029005 | 21.11° C | 34% | 1012.1 hPa | 0 mm | 1.34 m/s, 272° | 118 W/m² | - |
| 1778028702 | 21.11° C | 33% | 1011.7 hPa | 0 mm | 2.68 m/s, 283° | 123 W/m² | - |
| 1778028392 | 21.11° C | 33% | 1011.9 hPa | 0 mm | 1.79 m/s, 211° | 155 W/m² | - |
| 1778028089 | 21.67° C | 32% | 1011.8 hPa | 0 mm | 1.79 m/s, 192° | 152 W/m² | - |
| 1778027780 | 21.67° C | 33% | 1011.9 hPa | 0 mm | 1.79 m/s, 257° | 167 W/m² | - |
| 1778027476 | 21.67° C | 32% | 1011.9 hPa | 0 mm | 1.79 m/s, 209° | 195 W/m² | - |
* Rain latest hour (hover to see other rain measurements)
** Current wind speed in m/s (hover to see current wind gust speed)